Weather History for Russell, KS

Change the Weather History Date:

Thursday, February 13, 2014

  Actual Average Record
Temperature  
Mean Temperature 36 °F -  
Max Temperature 48 °F 44 °F 78 °F (1954)
Min Temperature 24 °F 22 °F 3 °F (2007)
Degree Days  
Heating Degree Days 29    
Moisture  
Dew Point 28 °F    
Average Humidity 73    
Maximum Humidity 85    
Minimum Humidity 56    
Precipitation  
Precipitation 0.00 in - - ()
Sea Level Pressure  
Sea Level Pressure 29.84 in    
Wind  
Wind Speed 12 mph (SW)    
Max Wind Speed 25 mph    
Max Gust Speed 37 mph    
Visibility 10 miles    
Events Rain    
Averages and records for this station are not official NWS values.
T = Trace of Precipitation, MM = Missing Value Source: NWS Daily Summary

Daily Weather History Graph

Daily Weather History Graph

Search for Another Location

Airport:

Trip Planner

Search our weather history database for the weather conditions in past years. The results will help you decide how hot, cold, wet, or windy it might be!

Date:

Astronomy

Feb. 13, 2014 Rise Set
Actual Time 7:28 AM CST 6:10 PM CST
Civil Twilight 7:01 AM CST 6:38 PM CST
Nautical Twilight 6:30 AM CST 7:09 PM CST
Astronomical Twilight 5:59 AM CST 7:40 PM CST
Moon 5:20 PM CST (2/13) 6:22 AM CST (2/13)
Length of Visible Light 11h 36m
Length of Day
10h 41m
Waxing Gibbous, 99% of the Moon is Illuminated
Feb 13
Waxing Gibbous
Feb 14
Full
Feb 22
Last Quarter
Mar 1
New
Mar 8
First Quarter

Hourly Weather History & Observations

Time (CST) Temp. Windchill Dew Point Humidity Pressure Visibility Wind Dir Wind Speed Gust Speed Precip Events Conditions
12:53 AM 28.0 °F 18.6 °F 24.1 °F 85% 29.91 in 10.0 mi SSW 10.4 mph - N/A   Partly Cloudy
1:53 AM 26.1 °F 14.0 °F 21.9 °F 84% 29.88 in 10.0 mi SSW 15.0 mph - N/A   Scattered Clouds
2:53 AM 26.1 °F 13.6 °F 21.9 °F 84% 29.86 in 10.0 mi SSW 16.1 mph - N/A   Clear
3:53 AM 25.0 °F 11.7 °F 21.0 °F 85% 29.85 in 10.0 mi SW 17.3 mph - N/A   Clear
4:53 AM 26.1 °F 12.7 °F 19.9 °F 78% 29.84 in 10.0 mi SW 18.4 mph - N/A   Clear
5:53 AM 26.1 °F 14.5 °F 19.9 °F 78% 29.86 in 10.0 mi WSW 13.8 mph - N/A   Clear
6:53 AM 25.0 °F 14.8 °F 19.9 °F 81% 29.87 in 10.0 mi WSW 10.4 mph - N/A   Clear
7:53 AM 24.1 °F 15.2 °F 19.0 °F 81% 29.89 in 10.0 mi West 8.1 mph - N/A   Clear
8:53 AM 27.0 °F 21.6 °F 21.9 °F 81% 29.91 in 10.0 mi WSW 4.6 mph - N/A   Clear
9:53 AM 37.9 °F 32.7 °F 28.0 °F 68% 29.92 in 10.0 mi NW 6.9 mph - N/A   Clear
10:53 AM 44.1 °F 39.5 °F 30.0 °F 58% 29.92 in 10.0 mi WNW 8.1 mph - N/A   Clear
11:53 AM 43.0 °F 38.8 °F 32.0 °F 65% 29.92 in 10.0 mi SW 6.9 mph - N/A   Clear
12:53 PM 45.0 °F 40.6 °F 34.0 °F 65% 29.88 in 10.0 mi WSW 8.1 mph - N/A   Clear
1:53 PM 48.0 °F - 34.0 °F 58% 29.85 in 10.0 mi SW 5.8 mph - N/A   Clear
2:53 PM 48.9 °F - 34.0 °F 56% 29.83 in 10.0 mi WSW 5.8 mph - N/A   Clear
3:53 PM 48.0 °F - 34.0 °F 58% 29.81 in 10.0 mi SSW 9.2 mph - N/A   Clear
4:53 PM 46.0 °F 41.4 °F 34.0 °F 63% 29.81 in 10.0 mi SSW 9.2 mph - N/A   Clear
5:53 PM 41.0 °F 34.3 °F 33.1 °F 73% 29.81 in 10.0 mi SSW 11.5 mph - N/A   Scattered Clouds
6:53 PM 39.0 °F 32.3 °F 32.0 °F 76% 29.81 in 10.0 mi SSW 10.4 mph - N/A   Clear
7:53 PM 37.9 °F 30.0 °F 30.9 °F 76% 29.79 in 10.0 mi South 12.7 mph - N/A   Clear
8:53 PM 37.0 °F 29.3 °F 30.9 °F 79% 29.77 in 10.0 mi South 11.5 mph - N/A   Clear
9:53 PM 35.1 °F 26.9 °F 30.0 °F 82% 29.73 in 10.0 mi SSW 11.5 mph - N/A   Partly Cloudy
10:53 PM 39.9 °F 30.8 °F 30.9 °F 70% 29.72 in 10.0 mi SW 18.4 mph 25.3 mph N/A   Overcast
11:53 PM 44.1 °F 34.8 °F 32.0 °F 63% 29.73 in 10.0 mi West 25.3 mph 36.8 mph 0.00 in Rain Light Rain